EHI
0 0 0 0 0 0 0 0 0 0 0 0 0 0 0 0 0 0 0 0 0 0 0 0 0 0 0 0 0 0 0 0 0 0 0 0 0 0 0 0 0 0 0
0 0 0 0 0 0 0 0 0 0 0 0 0 0 0 0 0 0 0 0 0 0 0 0 0 0 0 0 0 0 0 0 0 0 0 0 0 0 0 0 0 0 0
0 0 0 0 0 0 0 0 0 0 0 0 0 0 0 0 0 0 0 0 0 0 0 0 0 0 0 0 0 0 0 0 0 0 0 0 0 0 0 0 0 0 0
0 0 0 0 0 0 0 0 0 0 0 0 0 0 0 0 0 0 0 0 0 0 0 0 0 0 0 0 0 0 0 0 0 0 0 0 0 0 0 0 0 0 0
0 0 0 0 0 0 0 0 0 0 0 0 0 0 0 0 0 0 0 0 0 0 0 0 0 0 0 0 0 0 0 0 0 0 0 0 0 0 0 0 0 0 0
0 0 0 0 0 0 0 0 0 0 0 0 0 0 0 0 0 0 0 0 0 0 0 0 0 0 0 0 0 0 0 0 0 0 0 0 0 0 0 0 0 0 0
0 0 0 0 0 0 0 0 0 0 0 0 0 0 0 0 0 0 0 0 0 0 0 0 0 0 0 0 0 0 0 0 0 0 0 0 0 0 0 0 0 0 0
0 0 0 0 0 0 0 0 0 0 0 0 0 0 0 0 0 0 0 0 0 0 0 0 0 0 0 0 0 0 0 0 0 0 0 0 0 0 0 0 0 0 0
0 0 0 0 0 0 0 0 0 0 0 0 0 0 0 0 0 0 0 0 0 0 0 0 0 0 0 0 0 0 0 0 0 0 0 0 0 0 0 0 0 0 0
0 0 0 0 0 0 0 0 0 0 0 0 0 0 0 0 0 0 0 0 0 0 0 0 0 0 0 0 0 0 0 0 0 0 0 0 0 0 0 0 0 0 0
0 0 0 0 0 0 0 0 0 0 0 0 0 0 0 0 0 0 0 0 0 0 0 0 0 0 0 0 0 0 0 0 0 0 0 0 0 0 0 0 0 0 0
0 0 0 0 0 0 0 0 0 0 0 0 0 0 0 0 0 0 0 0 0 0 0 0 0 0 0 0 0 0 0 0 0 0 0 0 0 0 0 0 0 0 0
0 0 0 0 0 0 0 0 0 0 0 0 0 0 0 0 0 0 0 0 0 0 0 0 0 0 0 0 0 0 0 0 0 0 0 0 0 0 0 0 0 0 0
0 0 0 0 0 0 0 0 0 0 0 0 0 0 0 0 0 0 0 0 0 0 0 0 0 0 0 0 0 0 0 0 0 0 0 0 0 0 0 0 0 0 0
0 0 0 0 0 0 0 0 0 0 0 0 0 0 0 0 0 0 0 0 0 0 0 0 0 0 0 0 0 0 0 0 0 0 0 0 0 0 0 0 0 0 0
0 0 0 0 0 0 0 0 0 0 0 0 0 0 0 0 0 0 0 0 0 0 0 0 0 0 0 0 0 0 0 0 0 0 0 0 0 0 0 0 0 0 0
0 0 0 0 0 0 0 0 0 0 0 0 0 0 0 0 0 0 0 0 0 0 0 0 0 0 0 0 0 0 0 0 0 0 0 0 0 0 0 0 0 0 0
0 0 0 0 0 0 0 0 0 0 0 0 0 0 0 0 0 0 0 0 0 0 0 0 0 0 0 0 0 0 0 0 0 0 0 0 0 0 0 0 0 0 0
0 0 0 0 0 0 0 0 0 0 0 0 0 0 0 0 0 0 0 0 0 0 0 0 0 0 0 0 0 0 0 0 0 0 0 0 0 0 0 0 0 0 0
0 0 0 0 0 0 0 0 0 0 0 0 0 0 0 0 0 0 0 0 0 0 0 0 0 0 0 0 0 0 0 0 0 0 0 0 0 0 0 0 0 0 0
0 0 0 0 0 0 0 0 0 0 0 0 0 0 0 0 0 0 0 0 0 0 0 0 0 0 0 0 0 0 0 0 0 0 0 0 0 0 0 0 0 0 0
0 0 0 0 0 0 0 0 0 0 0 0 0 0 0 0 0 0 0 0 0 0 0 0 0 0 0 0 0 0 0 0 0 0 0 0 0 0 0 0 0 0 0
0 0 0 0 0 0 0 0 0 0 0 0 0 0 0 0 0 0 0 0 0 0 0 0 0 0 0 0 0 0 0 0 0 0 0 0 0 0 0 0 0 0 0
0 0 0 0 0 0 0 0 0 0 0 0 0 0 0 0 0 0 0 0 0 0 0 0 0 0 0 0 0 0 0 0 0 0 0 0 0 0 0 0 0 0 0
0 0 0 0 0 0 0 0 0 0 0 0 0 0 0 0 0 0 0 0 0 0 0 0 0 0 0 0 0 0 0 0 0 0 0 0 0 0 0 0 0 0 0
0 0 0 0 0 0 0 0 0 0 0 0 0 0 0 0 0 0 0 0 0 0 0 0 0 0 0 0 0 0 0 0 0 0 0 0 0 0 0 0 0 0 0
Wind_Speed
7 8 9 9 7 5 2 2 4 5 5 4 5 5 6 4 4 6 8 9 10 11 11 10 8 8 9 11 10 7 7 7 3 2 5 7 10 13 12 11 11 13 13
9 10 10 10 9 7 4 1 2 4 5 5 4 3 3 3 5 5 7 10 11 11 11 12 10 9 9 10 9 9 5 5 6 5 2 6 5 6 11 10 10 11 8
7 8 10 10 9 9 7 3 1 2 4 4 3 2 1 1 1 4 6 9 10 11 12 13 12 10 11 11 13 12 11 9 7 8 7 5 7 4 4 6 8 8 8
5 6 8 8 8 8 6 5 3 1 1 4 4 5 4 5 6 4 5 6 8 11 13 13 13 12 11 13 13 13 12 10 9 6 9 10 6 4 6 4 4 6 8
4 5 6 6 6 6 6 6 5 4 2 2 4 4 5 6 4 3 5 6 6 10 12 13 12 13 12 13 13 12 13 12 12 9 6 9 9 8 8 11 6 5 7
3 4 4 5 6 6 7 6 6 5 3 1 1 4 6 6 6 6 6 6 5 6 10 11 12 13 12 13 14 14 13 13 14 12 9 8 7 8 11 15 11 10 7
1 3 4 5 6 7 7 6 6 5 4 2 1 3 5 5 7 7 6 6 5 5 8 9 10 11 12 13 12 12 14 15 15 15 13 12 13 8 8 12 12 10 6
1 1 2 3 4 5 5 5 6 5 5 4 3 3 3 3 4 6 5 6 6 7 7 7 9 11 12 13 12 11 14 13 15 17 16 13 12 11 12 10 9 11 9
1 1 1 2 3 4 4 4 5 5 5 5 5 4 4 4 5 6 5 5 6 6 7 7 8 9 10 12 11 11 13 13 14 15 15 14 12 11 12 11 11 11 12
1 0 1 2 3 3 3 4 4 4 5 5 4 4 5 5 5 5 6 6 7 6 7 8 8 8 9 10 10 10 12 13 13 11 13 15 12 11 11 11 11 12 13
2 1 1 2 3 3 4 4 5 5 5 5 5 5 5 5 5 5 6 6 7 7 7 8 8 8 9 9 9 11 11 13 14 13 14 16 14 13 11 11 12 13 12
1 1 1 2 3 4 5 5 5 5 5 5 5 6 6 6 6 7 7 7 8 8 8 8 9 9 10 9 10 12 12 13 14 14 14 16 13 16 13 12 14 14 14
1 1 1 3 4 5 5 5 5 5 5 5 5 6 7 7 7 8 8 8 8 9 8 8 9 10 10 10 10 11 12 12 13 13 14 15 14 15 13 14 14 12 13
0 1 2 4 5 5 5 6 6 5 5 5 6 7 7 8 8 9 9 9 9 9 10 10 10 11 11 11 11 11 12 12 12 12 13 13 14 15 14 13 14 12 13
1 2 3 4 5 5 6 6 6 6 5 6 7 8 8 8 8 9 9 10 9 10 10 11 11 11 9 10 11 11 12 12 13 12 13 14 17 21 17 13 11 12 12
2 4 5 6 6 6 6 6 6 6 5 6 8 8 8 9 9 10 10 10 11 10 10 11 12 12 11 19 25 19 11 11 12 12 12 13 16 20 26 27 25 20 16
4 5 6 6 6 6 5 6 6 6 7 7 9 9 9 9 10 11 11 11 11 10 11 11 11 13 15 25 26 26 17 11 10 11 10 10 11 17 12 19 25 24 27
4 5 5 6 5 5 5 6 6 7 7 8 9 9 9 10 11 11 12 12 11 11 11 12 12 14 16 25 27 26 16 11 10 10 11 11 11 11 13 11 12 13 14
4 4 5 5 5 6 6 6 7 7 8 9 10 10 10 11 12 13 13 12 12 12 11 12 12 14 16 24 26 26 11 9 11 10 11 12 11 18 22 14 12 13 12
3 4 5 4 5 6 6 6 8 8 10 10 11 10 10 11 13 14 14 12 11 13 13 13 12 14 15 21 26 25 9 10 10 9 10 17 17 19 21 13 11 13 11
4 4 5 5 6 7 6 8 9 10 11 11 11 11 10 11 13 13 12 12 13 13 13 14 13 12 15 20 24 24 11 9 10 9 7 8 18 21 21 18 11 14 12
5 5 5 7 7 7 7 9 11 11 10 10 11 11 11 10 11 12 13 12 12 14 13 13 13 10 11 16 19 24 22 20 11 9 8 9 19 20 21 15 14 18 15
5 5 6 8 8 8 7 10 12 11 11 11 12 12 12 10 10 11 13 12 10 10 11 11 12 11 8 11 21 24 24 24 14 9 16 18 20 19 13 14 17 13 6
6 5 7 8 10 9 9 10 12 11 11 12 12 11 11 12 10 8 9 10 11 11 11 12 12 12 10 9 8 9 11 15 13 11 14 19 18 13 12 11 8 4 4
6 6 7 9 11 11 11 10 10 10 11 12 12 11 10 11 11 9 9 12 10 13 16 13 12 13 13 14 23 18 11 9 10 11 6 5 5 5 5 4 4 4 4
7 8 9 10 11 11 12 11 9 9 10 11 11 9 9 10 10 11 12 16 18 24 26 25 22 16 20 27 27 26 25 24 22 13 5 6 6 6 5 5 4 4 5
Wind_Direction
351 8 19 23 32 38 55 189 193 189 167 166 184 201 223 219 220 221 218 212 212 209 213 224 216 205 216 223 217 216 223 231 207 249 280 264 243 241 241 237 237 238 236
9 13 20 27 28 25 19 6 210 191 186 184 170 180 188 210 216 219 223 219 218 216 217 223 225 216 222 227 220 208 212 220 183 188 241 297 297 245 237 234 233 237 233
18 12 16 20 23 21 8 4 328 199 193 175 144 117 97 358 250 229 230 227 223 222 224 225 226 222 219 227 225 217 214 226 210 196 193 222 249 295 262 232 231 230 226
26 24 21 19 17 9 9 19 28 62 161 163 167 185 205 229 234 227 232 231 221 226 227 229 228 228 225 229 230 222 220 221 226 210 219 227 209 233 289 262 242 233 228
38 35 27 23 18 13 20 23 38 46 62 158 188 200 229 245 259 255 251 245 234 230 230 230 230 232 231 231 232 227 221 220 227 218 206 228 237 228 246 270 255 238 228
45 36 28 30 23 19 23 23 34 34 32 66 195 219 242 259 273 270 265 262 250 241 236 234 234 236 235 235 234 232 227 227 227 228 217 206 207 210 220 246 255 253 233
70 31 29 26 19 15 12 13 24 20 13 18 315 253 252 257 261 268 269 271 268 257 247 236 237 238 239 239 237 234 233 231 230 230 230 228 229 217 218 239 255 257 248
155 50 39 31 11 6 6 6 9 360 353 351 330 302 276 263 264 266 266 266 265 265 262 245 242 243 242 242 239 237 237 236 234 235 232 234 233 227 225 230 244 265 264
197 180 32 24 4 356 353 349 347 339 336 335 328 322 313 292 283 285 275 271 270 275 274 263 254 251 248 246 243 242 241 239 236 236 235 235 236 231 230 229 224 238 263
221 260 6 351 339 333 328 335 334 322 320 327 326 320 316 306 297 296 293 287 284 279 280 276 266 261 256 252 248 248 247 244 242 238 237 237 236 234 230 229 228 226 240
218 246 293 317 323 327 329 328 330 328 325 326 324 322 316 314 310 299 291 288 287 287 282 278 274 269 265 259 253 251 249 248 248 243 240 240 235 235 232 229 229 230 230
185 221 301 327 331 328 324 323 321 320 315 316 318 314 311 312 309 300 295 292 288 286 281 279 276 272 269 263 257 259 255 251 250 247 244 244 239 237 234 231 231 231 228
114 22 340 325 316 313 316 316 315 312 311 316 316 313 310 308 303 298 296 294 288 286 284 279 275 273 271 268 263 259 259 255 253 250 246 246 240 242 237 233 233 232 232
92 341 317 306 303 305 308 310 309 309 311 314 312 306 302 300 296 294 293 290 287 286 284 280 276 273 271 268 267 263 261 259 256 252 248 247 241 242 239 237 236 232 233
349 323 308 302 305 310 311 311 308 309 310 311 307 298 294 293 292 291 290 288 285 283 281 282 281 277 273 270 267 262 259 257 257 254 248 247 247 246 245 240 236 230 232
313 312 309 308 309 310 309 311 308 306 308 303 297 294 295 295 293 291 291 290 288 285 283 281 282 282 280 286 289 286 268 258 256 257 253 249 256 258 258 255 247 232 227
300 304 306 303 303 303 303 302 298 302 303 297 294 295 294 293 292 293 294 292 291 287 286 283 281 282 284 291 292 291 286 272 264 260 259 258 253 259 250 256 260 256 247
301 305 304 303 303 301 300 295 297 300 299 295 293 293 293 293 294 294 293 292 290 289 287 287 285 285 287 294 296 296 291 278 270 263 260 259 257 252 253 245 246 248 253
291 289 290 290 296 299 299 303 303 301 298 295 293 293 294 296 297 296 294 294 294 293 289 287 286 287 291 295 298 297 285 277 272 266 260 260 257 262 266 258 248 248 248
309 305 306 304 302 300 304 303 299 300 297 295 294 294 292 293 295 295 296 295 293 293 293 290 287 286 288 292 297 297 286 280 278 270 262 267 268 267 267 258 250 253 248
312 312 310 301 294 297 303 297 297 293 291 292 294 293 291 291 292 293 294 295 295 295 293 292 290 285 286 292 295 297 292 279 279 278 273 265 275 277 274 268 254 254 252
313 312 305 299 297 297 297 294 293 291 293 294 295 295 293 292 297 296 297 295 295 296 296 296 295 288 286 290 293 295 295 294 288 283 278 271 278 277 274 272 265 266 264
296 293 291 294 296 293 288 289 292 296 298 298 297 297 297 293 290 292 296 299 296 295 297 297 296 295 287 286 294 297 297 297 293 280 282 284 285 286 280 274 275 276 263
290 289 294 295 296 295 288 282 290 295 297 298 300 300 301 301 296 288 289 294 297 296 296 296 296 296 295 291 289 286 290 292 291 287 285 287 287 283 279 274 273 265 253
284 284 285 287 289 292 291 288 289 295 297 298 298 300 297 298 301 296 290 294 287 289 296 296 296 300 300 297 301 303 298 291 284 290 275 269 269 260 256 250 247 242 249
284 287 286 285 288 291 292 292 289 289 293 300 301 300 300 299 299 301 301 296 296 300 300 300 300 299 298 303 306 308 307 307 306 303 288 281 272 263 254 249 247 238 236